IU1DOF-3 Weather Reports


Display with metric or nautical units.
time (UTC)temp
F
wind
direction
speed
MPH
gust
MPH
rain 1hr
in
rain 24hr
in
rain mn
in
humidity
%
barometer
mb
20260903004030 59 303 0.0 0.0 0.00 0.00 0.00 88 1019.2
20260903003006 59 302 1.0 2.0 0.00 0.00 0.00 88 1019.2
20260903001946 59 302 1.0 1.0 0.00 0.00 0.00 91 1019.3
20260903000934 60 303 0.0 0.0 0.00 0.00 0.00 91 1018.9
20260902235910 60 302 2.0 2.0 0.00 0.00 0.00 91 1018.9
20260902234902 61 303 2.0 3.0 0.00 0.00 0.00 90 1019.1
20260902233838 60 302 2.0 2.0 0.00 0.00 0.00 94 1019.1
20260902232830 61 302 0.0 0.0 0.00 0.00 0.00 93 1019.0
20260902231806 62 304 1.0 1.0 0.00 0.00 0.00 92 1019.1
20260902230758 62 304 1.0 1.0 0.00 0.00 0.00 92 1018.9
20260902225750 62 303 2.0 2.0 0.00 0.00 0.00 94 1018.6
20260902224741 62 304 0.0 0.0 0.00 0.00 0.00 95 1018.8
20260902223718 62 304 0.0 0.0 0.00 0.00 0.00 94 1018.7
20260902222654 62 303 2.0 2.0 0.00 0.00 0.00 94 1018.9
20260902221641 63 303 1.0 2.0 0.00 0.00 0.00 94 1018.8
20260902220622 63 303 1.0 1.0 0.00 0.00 0.00 94 1019.0
20260902215614 63 304 1.0 1.0 0.00 0.00 0.00 93 1018.7
20260902214551 63 303 2.0 2.0 0.00 0.00 0.00 93 1018.9
20260902213541 64 303 2.0 2.0 0.00 0.00 0.00 93 1018.6
20260902212518 64 303 2.0 2.0 0.00 0.00 0.00 92 1018.8
20260902211457 64 304 1.0 2.0 0.00 0.00 0.00 91 1018.9
20260902210440 64 305 1.0 2.0 0.00 0.00 0.00 92 1018.8
20260902205422 64 302 1.0 1.0 0.00 0.00 0.00 92 1018.8
20260902204358 65 303 2.0 2.0 0.00 0.00 0.00 91 1018.6
20260902203340 65 304 1.0 1.0 0.00 0.00 0.00 91 1018.7
20260902202327 65 302 1.0 1.0 0.00 0.00 0.00 90 1018.5
20260902201303 65 303 1.0 1.0 0.00 0.00 0.00 90 1018.4
20260902200239 66 299 2.0 2.0 0.00 0.00 0.00 90 1018.4
20260902195214 66 300 2.0 2.0 0.00 0.00 0.00 89 1018.2
20260902194150 66 302 2.0 2.0 0.00 0.00 0.00 89 1018.2
20260902193140 66 291 1.0 2.0 0.00 0.00 0.00 89 1018.1
20260902192118 66 290 2.0 2.0 0.00 0.00 0.00 89 1018.1
20260902191055 67 290 1.0 2.0 0.00 0.00 0.00 87 1018.0
20260902190040 67 289 1.0 1.0 0.00 0.00 0.00 88 1018.1
20260902185023 67 301 2.0 2.0 0.00 0.00 0.00 87 1017.5
20260902183959 68 304 1.0 2.0 0.00 0.00 0.00 87 1017.7
20260902182940 68 302 1.0 2.0 0.00 0.00 0.00 86 1017.4
20260902181930 69 303 2.0 2.0 0.00 0.00 0.00 85 1017.5
20260902181141 69 304 2.0 3.0 0.00 0.00 0.00 85 1017.5
20260902180119 69 287 0.0 1.0 0.00 0.00 0.00 85 1017.2
20260902175055 70 303 2.0 3.0 0.00 0.00 0.00 85 1017.2
20260902174032 70 304 3.0 3.0 0.00 0.00 0.00 83 1016.9
20260902173926 70 303 3.0 3.0 0.00 0.00 0.00 83 1017.0
20260902172903 71 305 3.0 3.0 0.00 0.00 0.00 83 1017.2
20260902171838 72 304 2.0 3.0 0.00 0.00 0.00 82 1017.1
20260902170814 72 304 3.0 3.0 0.00 0.00 0.00 82 1017.0
20260902165751 73 308 3.0 3.0 0.00 0.00 0.00 80 1017.1
20260902164741 74 303 1.0 2.0 0.00 0.00 0.00 78 1016.8
20260902163719 74 305 2.0 2.0 0.00 0.00 0.00 78 1016.7
20260902162655 75 303 2.0 3.0 0.00 0.00 0.00 77 1016.7
20260902161640 77 288 1.0 1.0 0.00 0.00 0.00 67 1016.8
20260902160622 78 286 0.0 1.0 0.00 0.00 0.00 67 1016.7
20260902155559 79 279 1.0 2.0 0.00 0.00 0.00 64 1016.8
20260902154541 80 289 0.0 0.0 0.00 0.00 0.00 64 1016.9
20260902153527 79 281 2.0 4.0 0.00 0.00 0.00 63 1016.7
20260902152504 80 270 1.0 2.0 0.00 0.00 0.00 63 1016.8
20260902151438 80 294 0.0 2.0 0.00 0.00 0.00 64 1016.9
20260902150415 80 266 2.0 3.0 0.00 0.00 0.00 64 1017.1
20260902145352 80 278 1.0 3.0 0.00 0.00 0.00 63 1016.9
20260902144340 80 254 0.0 1.0 0.00 0.00 0.00 65 1017.2
20260902143320 80 235 2.0 4.0 0.00 0.00 0.00 62 1017.1
20260902142256 81 291 1.0 3.0 0.00 0.00 0.00 62 1017.1
20260902141240 81 281 0.0 1.0 0.00 0.00 0.00 64 1017.2
20260902140224 81 267 0.0 1.0 0.00 0.00 0.00 63 1017.1
20260902135159 80 297 1.0 2.0 0.00 0.00 0.00 64 1017.5
20260902134140 80 307 2.0 3.0 0.00 0.00 0.00 65 1017.2
20260902133126 80 276 1.0 2.0 0.00 0.00 0.00 65 1017.4
20260902132103 80 255 1.0 3.0 0.00 0.00 0.00 67 1017.4
20260902131039 79 258 2.0 3.0 0.00 0.00 0.00 64 1017.4
20260902130016 79 272 1.0 2.0 0.00 0.00 0.00 65 1017.9
20260902124952 79 263 1.0 3.0 0.00 0.00 0.00 64 1017.6
20260902123941 79 298 0.0 0.0 0.00 0.00 0.00 68 1017.6
20260902122919 79 261 7.0 8.0 0.00 0.00 0.00 63 1017.9
20260902121856 79 260 2.0 2.0 0.00 0.00 0.00 65 1017.7
20260902120840 79 282 0.0 2.0 0.00 0.00 0.00 68 1018.0
20260902115824 77 272 2.0 3.0 0.00 0.00 0.00 68 1018.3
20260902114759 78 294 0.0 1.0 0.00 0.00 0.00 68 1018.4
20260902113741 78 275 0.0 1.0 0.00 0.00 0.00 66 1018.1
20260902112727 79 266 1.0 2.0 0.00 0.00 0.00 66 1018.6
20260902111703 79 274 0.0 1.0 0.00 0.00 0.00 66 1018.2
20260902110640 77 277 0.0 0.0 0.00 0.00 0.00 69 1018.5
20260902105615 78 276 0.0 1.0 0.00 0.00 0.00 67 1018.6
20260902104551 77 279 1.0 2.0 0.00 0.00 0.00 67 1018.8
20260902103540 78 270 1.0 2.0 0.00 0.00 0.00 65 1018.8
20260902102519 77 266 1.0 1.0 0.00 0.00 0.00 65 1018.9
20260902101456 77 274 0.0 1.0 0.00 0.00 0.00 72 1019.2
20260902100441 75 272 0.0 1.0 0.00 0.00 0.00 69 1019.3
20260902095423 74 273 0.0 1.0 0.00 0.00 0.00 67 1019.3
20260902094359 72 274 0.0 1.0 0.00 0.00 0.00 66 1019.4
20260902093340 72 274 0.0 0.0 0.00 0.00 0.00 68 1019.1
20260902092327 73 274 0.0 1.0 0.00 0.00 0.00 66 1019.4
20260902091304 73 273 0.0 0.0 0.00 0.00 0.00 67 1019.3
20260902090240 74 275 0.0 0.0 0.00 0.00 0.00 60 1019.4
20260902085215 74 199 2.0 2.0 0.00 0.00 0.00 58 1019.2
20260902084152 72 277 0.0 0.0 0.00 0.00 0.00 62 1019.1
20260902083142 72 277 0.0 0.0 0.00 0.00 0.00 58 1019.4
20260902082120 73 278 0.0 0.0 0.00 0.00 0.00 55 1019.1
20260902081055 70 278 0.0 1.0 0.00 0.00 0.00 61 1019.3
20260902080041 71 279 0.0 0.0 0.00 0.00 0.00 59 1019.3
20260902075025 70 277 0.0 0.0 0.00 0.00 0.00 59 1019.3
20260902073959 69 304 0.0 0.0 0.00 0.00 0.00 62 1019.2
20260902072941 68 305 0.0 0.0 0.00 0.00 0.00 61 1019.2
20260902071928 66 305 0.0 0.0 0.00 0.00 0.00 62 1019.4
20260902070920 66 305 0.0 0.0 0.00 0.00 0.00 64 1019.4
20260902065856 64 275 0.0 0.0 0.00 0.00 0.00 71 1019.3
20260902064847 66 275 0.0 0.0 0.00 0.00 0.00 68 1019.2
20260902063840 65 275 0.0 0.0 0.00 0.00 0.00 71 1019.3
20260902062831 61 276 0.0 0.0 0.00 0.00 0.00 75 1019.3
20260902061808 61 275 0.0 0.0 0.00 0.00 0.00 81 1019.4
20260902060759 60 275 0.0 0.0 0.00 0.00 0.00 78 1019.3
20260902055751 58 303 0.0 0.0 0.00 0.00 0.00 83 1018.9
20260902054743 56 305 1.0 2.0 0.00 0.00 0.00 84 1018.8
20260902053735 56 305 0.0 0.0 0.00 0.00 0.00 85 1019.1
20260902052727 56 305 2.0 2.0 0.00 0.00 0.00 85 1019.2
20260902051719 55 305 0.0 0.0 0.00 0.00 0.00 87 1019.2
20260902050656 55 285 0.0 0.0 0.00 0.00 0.00 84 1019.0
20260902045641 56 307 0.0 1.0 0.00 0.00 0.00 82 1018.9
20260902044624 55 306 0.0 0.0 0.00 0.00 0.00 84 1018.8
20260902043559 56 305 0.0 0.0 0.00 0.00 0.00 83 1018.6
20260902042540 56 306 0.0 0.0 0.00 0.00 0.00 84 1018.8
20260902041528 55 304 0.0 0.0 0.00 0.00 0.00 84 1018.7
20260902040505 55 308 0.0 1.0 0.00 0.00 0.00 85 1018.3
20260902035455 57 303 0.0 0.0 0.00 0.00 0.00 81 1018.7
20260902034440 56 306 2.0 2.0 0.00 0.00 0.00 82 1018.7
20260902033424 56 305 1.0 1.0 0.00 0.00 0.00 84 1018.8
20260902032359 56 309 0.0 0.0 0.00 0.00 0.00 86 1018.7
20260902031335 57 303 0.0 0.0 0.00 0.00 0.00 85 1018.7
20260902030328 57 305 2.0 2.0 0.00 0.00 0.00 85 1019.0
20260902025319 57 293 1.0 2.0 0.00 0.00 0.00 87 1018.8
20260902024257 57 305 0.0 0.0 0.00 0.00 0.00 84 1019.0
20260902023241 58 305 0.0 0.0 0.00 0.00 0.00 84 1018.9
20260902022224 58 305 0.0 1.0 0.00 0.00 0.00 84 1018.6
20260902021159 58 306 0.0 0.0 0.00 0.00 0.00 83 1018.6
20260902020138 58 305 0.0 0.0 0.00 0.00 0.00 84 1018.6
20260902015056 59 305 1.0 2.0 0.00 0.00 0.00 84 1018.5
20260902014041 58 305 1.0 2.0 0.00 0.00 0.00 86 1018.7
20260902013024 58 287 0.0 1.0 0.00 0.00 0.00 85 1018.6
20260902012000 58 305 2.0 2.0 0.00 0.00 0.00 85 1018.5
20260902010935 58 305 0.0 0.0 0.00 0.00 0.00 86 1018.8
20260902005911 58 305 1.0 2.0 0.00 0.00 0.00 86 1018.6
20260902004848 59 293 0.0 0.0 0.00 0.00 0.00 86 1018.8